Versailles, OH

7:42 PM EDT on May 27, 2017 (GMT -0400)
Darke County

Weather History for KVES - November, 2013

Change the Weather History Date:

Tuesday, November 12, 2013

  Actual Average (KDAY) Record (KDAY)
Temperature  
Mean Temperature 26 °F -  
Max Temperature 32 °F 49 °F 73 °F (1945)
Min Temperature 21 °F 32 °F 15 °F (1911)
Degree Days  
Heating Degree Days 38    
Moisture  
Dew Point 24 °F    
Average Humidity 85    
Maximum Humidity 100    
Minimum Humidity 69    
Precipitation  
Precipitation 0.00 in - - ()
Sea Level Pressure  
Sea Level Pressure 30.50 in    
Wind  
Wind Speed 12 mph (NNW)    
Max Wind Speed 18 mph    
Max Gust Speed 29 mph    
Visibility 9 miles    
Events Snow    
Averages and records for this station are not official NWS values.
T = Trace of Precipitation, MM = Missing Value Source: NWS Daily Summary

Daily Weather History Graph

Daily Weather History Graph

Search for Another Location

Airport or City:

Trip Planner

Search our weather history database for the weather conditions in past years. The results will help you decide how hot, cold, wet, or windy it might be!

Date:

Astronomy

Nov. 12, 2013 Rise Set
Actual Time 7:20 AM EST 5:23 PM EST
Civil Twilight 6:51 AM EST 5:52 PM EST
Nautical Twilight 6:18 AM EST 6:25 PM EST
Astronomical Twilight 5:46 AM EST 6:57 PM EST
Moon 2:37 PM EST (11/12) 2:08 AM EST (11/12)
Length of Visible Light 11h 00m
Length of Day
10h 03m
Waxing Gibbous, 76% of the Moon is Illuminated
Nov 12
Waxing Gibbous
Nov 17
Full
Nov 25
Last Quarter
Dec 2
New
Dec 9
First Quarter

Hourly Weather History & Observations

Time (EST) Temp. Windchill Dew Point Humidity Pressure Visibility Wind Dir Wind Speed Gust Speed Precip Events Conditions
12:15 AM 28.4 °F 15.8 °F 28.4 °F 100% 30.31 in 2.0 mi North 18.4 mph 28.8 mph N/A Snow Light Snow
12:35 AM 28.4 °F 16.6 °F 28.4 °F 100% 30.32 in 2.0 mi North 16.1 mph 21.9 mph N/A Snow Light Snow
12:55 AM 28.4 °F 15.8 °F 28.4 °F 100% 30.32 in 1.2 mi North 18.4 mph 25.3 mph N/A Snow Light Snow
1:15 AM 28.4 °F 18.0 °F 26.6 °F 93% 30.33 in 1.5 mi North 12.7 mph - N/A Snow Light Snow
1:35 AM 28.4 °F 19.1 °F 26.6 °F 93% 30.33 in 10.0 mi North 10.4 mph - N/A   Overcast
1:55 AM 28.4 °F 19.1 °F 26.6 °F 93% 30.34 in 10.0 mi North 10.4 mph - N/A   Overcast
2:15 AM 28.4 °F 18.0 °F 26.6 °F 93% 30.34 in 10.0 mi North 12.7 mph - N/A   Overcast
2:35 AM 28.4 °F 17.0 °F 23.0 °F 80% 30.35 in 10.0 mi North 15.0 mph - N/A   Overcast
2:55 AM 28.4 °F 17.5 °F 23.0 °F 80% 30.35 in 10.0 mi North 13.8 mph 19.6 mph N/A   Mostly Cloudy
3:15 AM 28.4 °F 17.5 °F 23.0 °F 80% 30.36 in 10.0 mi North 13.8 mph - N/A   Clear
3:35 AM 28.4 °F 17.5 °F 21.2 °F 74% 30.36 in 10.0 mi North 13.8 mph - N/A   Clear
3:55 AM 26.6 °F 14.7 °F 21.2 °F 80% 30.37 in 10.0 mi North 15.0 mph 20.7 mph N/A   Clear
4:15 AM 26.6 °F 15.7 °F 21.2 °F 80% 30.38 in 10.0 mi North 12.7 mph - N/A   Clear
4:35 AM 24.8 °F 14.6 °F 19.4 °F 80% 30.39 in 10.0 mi North 10.4 mph - N/A   Clear
4:55 AM 24.8 °F 15.3 °F 19.4 °F 80% 30.39 in 10.0 mi North 9.2 mph - N/A   Clear
5:15 AM 23.0 °F 13.1 °F 19.4 °F 86% 30.41 in 10.0 mi NNW 9.2 mph - N/A   Clear
5:35 AM 23.0 °F 11.7 °F 19.4 °F 86% 30.42 in 10.0 mi North 11.5 mph - N/A   Clear
5:55 AM 23.0 °F 12.4 °F 19.4 °F 86% 30.43 in 10.0 mi North 10.4 mph - N/A   Clear
6:15 AM 23.0 °F 12.4 °F 19.4 °F 86% 30.44 in 10.0 mi North 10.4 mph - N/A   Clear
6:35 AM 21.2 °F 10.9 °F 19.4 °F 93% 30.45 in 10.0 mi North 9.2 mph - N/A   Clear
6:55 AM 21.2 °F 10.9 °F 19.4 °F 93% 30.46 in 10.0 mi NNW 9.2 mph - N/A   Clear
7:15 AM 21.2 °F 10.9 °F 19.4 °F 93% 30.46 in 10.0 mi North 9.2 mph - N/A   Clear
7:35 AM 21.2 °F 11.7 °F 19.4 °F 93% 30.48 in 10.0 mi NNW 8.1 mph - N/A   Clear
7:55 AM 21.2 °F 12.6 °F 19.4 °F 93% 30.49 in 10.0 mi NNW 6.9 mph - N/A   Clear
8:15 AM 21.2 °F 11.7 °F 19.4 °F 93% 30.50 in 10.0 mi NNW 8.1 mph - N/A   Clear
8:35 AM 23.0 °F 13.1 °F 19.4 °F 86% 30.51 in 10.0 mi NNW 9.2 mph - N/A   Clear
8:55 AM 23.0 °F 13.9 °F 19.4 °F 86% 30.51 in 10.0 mi NNW 8.1 mph - N/A   Clear
9:15 AM 24.8 °F 15.3 °F 21.2 °F 86% 30.52 in 10.0 mi NNW 9.2 mph - N/A   Clear
9:35 AM 26.6 °F 17.5 °F 21.2 °F 80% 30.53 in 10.0 mi NNW 9.2 mph - N/A   Clear
9:55 AM 26.6 °F 17.5 °F 21.2 °F 80% 30.53 in 10.0 mi NNW 9.2 mph - N/A   Clear
10:15 AM 26.6 °F 16.2 °F 21.2 °F 80% 30.54 in 10.0 mi NNW 11.5 mph - N/A   Clear
10:35 AM 28.4 °F 18.0 °F 21.2 °F 74% 30.55 in 10.0 mi North 12.7 mph - N/A   Clear
10:55 AM 28.4 °F 19.1 °F 21.2 °F 74% 30.55 in 10.0 mi North 10.4 mph - N/A   Clear
11:15 AM 28.4 °F 18.5 °F 21.2 °F 74% 30.55 in 10.0 mi North 11.5 mph - N/A   Clear
11:35 AM 28.4 °F 19.1 °F 23.0 °F 80% 30.55 in 10.0 mi North 10.4 mph - N/A   Scattered Clouds
11:55 AM 28.4 °F 19.7 °F 23.0 °F 80% 30.54 in 10.0 mi North 9.2 mph 16.1 mph N/A   Scattered Clouds
12:15 PM 28.4 °F 19.1 °F 23.0 °F 80% 30.54 in 10.0 mi North 10.4 mph - N/A   Scattered Clouds
12:35 PM 30.2 °F 19.8 °F 23.0 °F 75% 30.55 in 10.0 mi North 13.8 mph 18.4 mph N/A   Scattered Clouds
12:55 PM 30.2 °F 20.2 °F 23.0 °F 75% 30.54 in 10.0 mi North 12.7 mph - N/A   Scattered Clouds
1:15 PM 30.2 °F 20.8 °F 23.0 °F 75% 30.54 in 10.0 mi North 11.5 mph - N/A   Scattered Clouds
1:35 PM 32.0 °F 23.6 °F 23.0 °F 69% 30.54 in 10.0 mi NNW 10.4 mph 16.1 mph N/A   Clear
1:55 PM 32.0 °F 20.8 °F 23.0 °F 69% 30.54 in 10.0 mi North 17.3 mph - N/A   Scattered Clouds
2:15 PM 32.0 °F 22.1 °F 26.6 °F 80% 30.54 in 10.0 mi NNW 13.8 mph 18.4 mph N/A   Scattered Clouds
2:35 PM 32.0 °F 23.0 °F 24.8 °F 75% 30.55 in 10.0 mi NNW 11.5 mph - N/A   Scattered Clouds
2:55 PM 32.0 °F 22.1 °F 24.8 °F 75% 30.55 in 10.0 mi NNW 13.8 mph - N/A   Scattered Clouds
3:15 PM 32.0 °F 23.0 °F 24.8 °F 75% 30.55 in 10.0 mi NNW 11.5 mph - N/A   Scattered Clouds
3:35 PM 32.0 °F 23.6 °F 23.0 °F 69% 30.55 in 10.0 mi NNW 10.4 mph 16.1 mph N/A   Mostly Cloudy
3:55 PM 32.0 °F 24.2 °F 24.8 °F 75% 30.55 in 10.0 mi North 9.2 mph - N/A   Overcast
4:15 PM 32.0 °F 25.6 °F 24.8 °F 75% 30.55 in 10.0 mi NNW 6.9 mph - N/A   Overcast
4:35 PM 32.0 °F 27.5 °F 24.8 °F 75% 30.55 in 10.0 mi NW 4.6 mph - N/A   Mostly Cloudy
4:55 PM 32.0 °F 23.6 °F 26.6 °F 80% 30.56 in 10.0 mi WNW 10.4 mph - N/A Snow Light Snow
5:15 PM 30.2 °F 24.3 °F 28.4 °F 93% 30.56 in 2.5 mi WNW 5.8 mph - N/A Snow Light Snow
5:35 PM 30.2 °F 26.7 °F 28.4 °F 93% 30.55 in 10.0 mi NW 3.5 mph - N/A Snow Light Snow
5:55 PM 28.4 °F - 28.4 °F 100% 30.55 in 10.0 mi Calm Calm - N/A   Scattered Clouds
6:15 PM 30.2 °F 25.4 °F 28.4 °F 93% 30.55 in 10.0 mi West 4.6 mph - N/A Snow Light Snow
6:35 PM 30.2 °F 24.3 °F 28.4 °F 93% 30.54 in 10.0 mi West 5.8 mph - N/A   Mostly Cloudy
6:55 PM 30.2 °F 25.4 °F 28.4 °F 93% 30.55 in 10.0 mi WNW 4.6 mph - N/A   Overcast
7:15 PM 30.2 °F 23.4 °F 28.4 °F 93% 30.54 in 10.0 mi WNW 6.9 mph - N/A   Overcast
7:35 PM 30.2 °F 23.4 °F 28.4 °F 93% 30.54 in 10.0 mi WNW 6.9 mph - N/A   Scattered Clouds
7:55 PM 28.4 °F 21.2 °F 28.4 °F 100% 30.56 in 10.0 mi NW 6.9 mph - N/A   Scattered Clouds
8:15 PM 30.2 °F 22.6 °F 26.6 °F 86% 30.56 in 10.0 mi NNW 8.1 mph - N/A   Scattered Clouds
8:35 PM 30.2 °F 21.9 °F 26.6 °F 86% 30.57 in 10.0 mi NW 9.2 mph - N/A   Scattered Clouds
8:55 PM 28.4 °F 19.7 °F 24.8 °F 86% 30.58 in 10.0 mi NNW 9.2 mph - N/A   Clear
9:15 PM 28.4 °F 21.2 °F 24.8 °F 86% 30.58 in 10.0 mi NW 6.9 mph - N/A   Clear
9:35 PM 28.4 °F 21.2 °F 24.8 °F 86% 30.58 in 10.0 mi NW 6.9 mph - N/A   Clear
9:55 PM 28.4 °F 22.2 °F 24.8 °F 86% 30.58 in 10.0 mi NW 5.8 mph - N/A   Clear
10:15 PM 26.6 °F 20.0 °F 24.8 °F 93% 30.58 in 10.0 mi WNW 5.8 mph - N/A   Clear
10:35 PM 26.6 °F 20.0 °F 24.8 °F 93% 30.58 in 10.0 mi WNW 5.8 mph - N/A   Clear
10:55 PM 26.6 °F 22.6 °F 24.8 °F 93% 30.58 in 10.0 mi WNW 3.5 mph - N/A   Clear
11:15 PM 26.6 °F 22.6 °F 24.8 °F 93% 30.57 in 10.0 mi West 3.5 mph - N/A   Clear
11:35 PM 23.0 °F 17.0 °F 23.0 °F 100% 30.57 in 10.0 mi West 4.6 mph - N/A   Clear
11:55 PM 23.0 °F 17.0 °F 23.0 °F 100% 30.56 in 10.0 mi West 4.6 mph - N/A   Clear